Tracking 18851 objects as of 25-Nov-2017
HD Live streaming from Space Station
objects crossing your sky now

SHINSEI (MS-F2)

Track SHINSEI (MS-F2) now!
10-day predictions
SHINSEI (MS-F2) is classified as:


NORAD ID: 5485
Int'l Code: 1971-080A
Perigee: 876.5 km
Apogee: 1,868.2 km
Inclination: 32.1 °
Period: 113.0 minutes
Semi major axis: 7743 km
RCS: 0.8279 m2 (medium)
Launch date: September 28, 1971
Source: Japan (JPN)
Launch site: KAGOSHIMA SPACE CENTER UNIVERSITY OF TOKYO (KSCUT)
aabbcc
Your satellite tracking list
Your tracking list is empty




NASA's NSSDC Master Catalog

Two Line Element Set (TLE):
1 05485U 71080A   17328.37064535  .00000024  00000-0 -18011-4 0  9994
2 05485  32.0588 310.9524 0640360 247.4643 105.6967 12.74123327150410
Source of the keplerian elements: AFSPC